Regional Weather Roundup
Issued by NWS Upton, NY

Current Version | Previous Version | Graphics & Text | Print | Product List | Glossary Off
Versions: 1 2 3 4 5 6 7 8 9 10 11 12 13 14 15 16 17 18 19 20 21 22 23 24 25 26 27 28 29 30 31 32 33 34 35 36 37 38 39 40 41 42 43 44 45 46 47 48 49 50

000
ASUS41 KOKX 240008
RWROKX

REGIONAL WEATHER ROUNDUP
NATIONAL WEATHER SERVICE NEW YORK NY
800 PM EDT SAT MAY 23 2015

NOTE: "FAIR" INDICATES FEW OR NO CLOUDS BELOW 12,000 FEET WITH NO
SIGNIFICANT WEATHER AND/OR OBSTRUCTIONS TO VISIBILITY.

NYZ071-072-176-178-NJZ106-104-240100-
NEW YORK CITY METRO AREA


CITY           SKY/WX    TMP DP  RH WIND       PRES   REMARKS
CENTRAL PARK   CLEAR     62  40  44 VRB3      30.36R
LAGUARDIA APRT PTCLDY    60  40  47 S12       30.33S
KENNEDY INTL   PTCLDY    57  43  59 S17G26    30.36S
NEWARK/LIBERTY PTCLDY    67  26  21 SW10      30.32S
BRNX BOT. GARD   N/A     59  41  51 E2        30.35F
TETERBORO      CLEAR     63  39  41 S7        30.32R
$$

NYZ177-179-078>081-240100-
LONG ISLAND NEW YORK

CITY           SKY/WX    TMP DP  RH WIND       PRES   REMARKS
FARMINGDALE    CLEAR     55  42  61 SW14      30.36R
ISLIP          PTCLDY    55  42  61 SW13      30.34R
SHIRLEY        CLEAR     55  42  61 S8        30.36S
WESTHAMPTON    CLEAR     53  40  61 SW7       30.36S
MONTAUK POINT    N/A     56  34  43 SW7       30.35S
$$

NYZ052-065-067-240100-
HUDSON VALLEY

CITY           SKY/WX    TMP DP  RH WIND       PRES   REMARKS
WHITE PLAINS   CLEAR     58  38  47 S8        30.32R
NEWBURGH       CLEAR     63  34  34 W7        30.33R
MONTGOMERY     CLEAR     60  39  45 CALM      30.31S
POUGHKEEPSIE   CLEAR     65  27  23 W9        30.30R
ALBANY         PTCLDY    59  29  31 NW8       30.30S
$$

NJZ001-105-106-008-010-013-015-019>022-104-240100-
NEW JERSEY

CITY           SKY/WX    TMP DP  RH WIND       PRES   REMARKS
NEWARK/LIBERTY PTCLDY    67  26  21 SW10      30.32S
TETERBORO      CLEAR     63  39  41 S7        30.32R
CALDWELL       CLEAR     66  28  24 SW3       30.33R
MORRISTOWN     CLEAR     68  28  22 SW6       30.33S
SOMERVILLE     CLEAR     63  31  30 CALM      30.32S
SUSSEX         CLEAR     58  33  39 CALM      30.34S
ANDOVER          N/A     60  35  39 CALM      30.33S
TRENTON        CLEAR     65  28  24 W3        30.35S
MILLVILLE      CLEAR     62  38  40 SW3       30.38R
ATLANTIC CITY  CLEAR     63  40  42 W6        30.37S
WRIGHTSTOWN    CLEAR     62  35  37 S3        30.33S
TOMS RIVER     CLEAR    N/A N/A N/A S8        30.37S
BELMAR         CLEAR     57  41  54 S8        30.36F
$$

PAZ047>061-062-071-240100-
EASTERN PENNSYLVANIA

CITY           SKY/WX    TMP DP  RH WIND       PRES   REMARKS
PHILADELPHIA   PTCLDY    68  33  27 SW12      30.37S
ALLENTOWN      CLEAR     64  27  24 W6        30.34S
SCRANTON       CLEAR     65  27  23 SW7       30.32F
$$

CTZ002-004>006-009-010-012-RIZ004-006-007-MAZ004-011-015-240100-
SOUTHERN NEW ENGLAND
 IN CT

CITY           SKY/WX    TMP DP  RH WIND       PRES   REMARKS
BRADLEY INTL   PTCLDY    62  28  27 W8        30.29S
HARTFORD       CLEAR     64  26  23 SW9       30.30S
DANBURY        CLEAR     59  30  33 SW5       30.33R
WTRBRY/OXFORD  CLEAR     61  28  29 CALM      30.32F
BRIDGEPORT     CLEAR     61  43  51 S14       30.32S
MERIDEN        CLEAR     58  34  40 S5        30.31S
NEW HAVEN      CLEAR     58  37  45 S6        30.32S
CHESTER        FAIR      57  32  38 SW3       30.33S
GROTON         CLEAR     54  42  64 SW8       30.32S
WILLIMANTIC    CLEAR     62  26  25 S3        30.30S

 IN RI

CITY           SKY/WX    TMP DP  RH WIND       PRES   REMARKS
PROVIDENCE     CLEAR     61  24  24 W8        30.30S
BLOCK ISLAND   CLEAR     54  36  50 SW15      30.34S
WESTERLY       CLEAR     55  42  61 SW5       30.33S

 IN MA

CITY           SKY/WX    TMP DP  RH WIND       PRES   REMARKS
BOSTON         PTCLDY    61  22  22 W9        30.28R
WORCESTER      CLEAR     55  24  30 W8        30.28F
WESTFIELD      CLEAR     62  27  26 NW5       30.29S
PROVINCETOWN   CLEAR     55  39  54 SW15      30.29S
NANTUCKET      CLEAR     52  40  63 SW14      30.34R
$$

ANZ330-335-338-340-345-350-353-355-240100-
COASTAL MARINE OBSERVATIONS


STATION/POSITION TIME  SKY/WX   TEMP    WIND        PRES    VSBY  WAVE
                                AIR SEA DIR/SP/G                  HT/PER
                 (UTC)          (F)     (DEG/KT/KT) (MB)    (MI)  (FT/S)
NY HARB ENTRANCE 2350            56 56  200/ 17/ 19 1027.6          2/ 3
4S FIRE IS       2303               53                N/A           2/ 3
20S FIRE ISLAND  2350            54 55  210/ 17/ 19 1028.0          2/ 3
GREAT SOUTH BAY  2300            56 63  230/ 14/ 17   N/A
23SW MTP         2350            54 53  230/ 10/ 12 1027.7          2/ 4
HUDSON CANYON    NOT AVBL
KINGS POINT      2300            59 55  200/ 12/ 14 1026.6
CENTRAL LI SOUND 2330            57 52  220/  6/ 10   N/A
EASTERN LI SOUND 2300            58     240/ 10/ 14   N/A
ROBBINS REEF     2300            59     160/ 15/ 17 1026.0
$$


>>>>>>>>>>>>>>>>>>>>>>>>>>>> KEY <<<<<<<<<<<<<<<<<<<<<<<<<<<
>                                                          <
>     SKY/WX - SKY CONDITION/PRESENT WEATHER               <
>     TMP    - TEMPERATURE IN FAHRENHEIT                   <
>     DP     - DEWPOINT IN FAHRENHEIT                      <
>     RH     - RELATIVE HUMIDITY IN PERCENT                <
>     WIND   - DIRECTION AND SPEED IN MPH                  <
>     PRES   - MEAN SEA LEVEL PRESSURE IN INCHES OF HG     <
>     WCI    - WIND CHILL INDEX                            <
>     VSB    - VISIBILITY IN MILES                         <
>     HX     - HEAT INDEX                                  <
>     TC     - TEMPERATURE IN CELSIUS                      <
>     VRB    - VARIABLE WIND DIRECTION                     <
>                                                          <
>>>>>>>>>>>>>>>>>>>>>>>>>>>> KEY <<<<<<<<<<<<<<<<<<<<<<<<<<<





USA.gov is the U.S. government's official web portal to all federal, state and local government web resources and services.